Location: Unspecified
(0.0000°N, 1.0000°E)
Time: 03:51:01
(UTC+02:00)

Amateur Radio Satellites - All Passes

Search period start: 02 September 2014 03:21
Search period end: 03 September 2014 03:21
Location: Unspecified, 0.0000°N, 1.0000°E

Satellite Date Start Highest point End Downlink Frequencies (MHz)
Time Altitude Azimuth
PCSat 02 Sep 03:46:24 03:51:06 31° 71° (ENE) 03:55:47 145.825 MHz
Oscar 19 02 Sep 03:48:34 03:53:08 32° 283° (WNW) 03:57:41 437.125 CW, 437.150 USB
Gurwin Techsat 1B 02 Sep 03:55:56 04:00:48 37° 103° (ESE) 04:05:40 435.225 FM
AO-Echo 02 Sep 03:58:26 04:03:06 59° 282° (WNW) 04:07:57 ?
JAS-1B 02 Sep 04:07:18 04:13:01 77° 283° (WNW) 04:18:46 435.800 - 435.900 CW/SSB
ITAMSAT 1 02 Sep 04:25:41 04:30:19 33° 283° (WNW) 04:34:59 435.822 SSB
Oscar 16 02 Sep 04:26:55 04:28:20 11° 283° (WNW) 04:29:44 437.025 USB, Beacon 2401.1428
UOSAT-12 02 Sep 04:27:41 04:31:57 46° 112° (ESE) 04:36:17 437.025 FM, 437.400 FM
Uribyol 2 02 Sep 04:35:36 04:39:43 24° 283° (WNW) 04:43:52 436.500 FM
TMSAT-1 02 Sep 04:45:35 04:50:52 81° 282° (WNW) 04:56:11 436.925 FM
Uosat F 02 Sep 04:53:34 04:55:54 13° 103° (ESE) 04:58:13 435.120 FM
AO-27 02 Sep 04:57:13 04:59:54 14° 283° (WNW) 05:02:37 436.795 MHz FM
Sapphire 02 Sep 04:59:58 05:05:01 41° 251° (WSW) 05:10:05 437.095 MHz 1200 baud AX-25 AFSK
OPAL 02 Sep 05:06:25 05:09:03 14° 75° (ENE) 05:11:41 ?
PCSat 02 Sep 05:30:46 05:34:14 17° 250° (WSW) 05:37:43 145.825 MHz
Gurwin Techsat 1B 02 Sep 05:37:57 05:40:29 14° 283° (WNW) 05:43:02 435.225 FM
AO-7 02 Sep 06:00:45 06:09:02 90° 296° (WNW) 06:17:21 29.400 - 29.500 MHz
PANSAT 02 Sep 06:05:35 06:07:47 15° 152° (SSE) 06:09:59 not established
Uosat F 02 Sep 06:29:53 06:34:23 34° 283° (WNW) 06:38:56 435.120 FM
OPAL 02 Sep 06:43:13 06:47:39 32° 256° (WSW) 06:52:06 ?
RS-15 02 Sep 06:44:44 06:55:54 52° 111° (ESE) 07:06:30 29.354 - 29.394 USB, Beacon 29.352 USB
JAS-2 02 Sep 07:19:36 07:25:25 58° 104° (ESE) 07:32:02 435.800 - 435.900 CW/SSB, 435.910 FM
Hamsat 02 Sep 07:42:20 07:46:33 63° 281° (WNW) 07:50:45 145.90 MHz
PANSAT 02 Sep 07:44:06 07:47:58 84° 330° (NNW) 07:51:50 not established
ISS 02 Sep 07:49:14 07:52:12 30° 126° (SE) 07:55:09 145.800 FM
STRAND 1 02 Sep 08:30:15 08:35:23 79° 257° (WSW) 08:40:28 ?
SO-67 02 Sep 08:33:09 08:36:32 55° 101° (E) 08:39:55 435.3500 MHz FM
RS-15 02 Sep 08:58:52 09:07:46 27° 291° (WNW) 09:16:29 29.354 - 29.394 USB, Beacon 29.352 USB
JAS-2 02 Sep 09:09:15 09:10:30 11° 280° (W) 09:11:46 435.800 - 435.900 CW/SSB, 435.910 FM
PANSAT 02 Sep 09:26:20 09:28:10 13° 332° (NNW) 09:30:00 not established
KITSAT 1 02 Sep 09:52:33 09:58:37 23° 69° (ENE) 10:04:39 435.175 FM
Saudisat 1A 02 Sep 10:11:05 10:15:14 43° 248° (WSW) 10:19:24 436.775 MHz
HO-68 02 Sep 10:46:14 10:53:24 84° 284° (WNW) 11:00:36 435.675 MHz FM
UKube-1 02 Sep 11:15:33 11:19:49 61° 282° (WNW) 11:24:08 145.840 MHz, 145.915 MHz
Oscar 11 02 Sep 11:19:01 11:23:22 82° 102° (ESE) 11:27:42 145.825 FM, Beacon 2401.500 USB
KITSAT 1 02 Sep 11:46:11 11:53:40 44° 250° (WSW) 12:01:12 435.175 FM
FUNcube-1 02 Sep 11:51:29 11:56:04 71° 102° (ESE) 12:00:40 145.950 - 145.970 MHz USB
MaSat-1 02 Sep 12:24:55 12:28:46 41° 105° (ESE) 12:33:08 437.345 MHz
AO-40 02 Sep 12:41:24 13:04:02 56° 356° (N) 13:09:48 Beacon 2401.320
JAS-1B 02 Sep 14:26:27 14:32:40 19° 75° (ENE) 14:38:44 435.800 - 435.900 CW/SSB
Oscar 19 02 Sep 14:43:05 14:47:51 39° 78° (ENE) 14:52:37 437.125 CW, 437.150 USB
AO-Echo 02 Sep 14:50:44 14:54:21 19° 78° (ENE) 14:57:53 ?
SO-50 02 Sep 14:52:53 14:57:45 85° 248° (WSW) 15:02:36 436.795 FM
Oscar 16 02 Sep 15:18:04 15:23:11 73° 258° (WSW) 15:28:18 437.025 USB, Beacon 2401.1428
ITAMSAT 1 02 Sep 15:21:30 15:26:19 39° 77° (ENE) 15:31:06 435.822 SSB
Uribyol 2 02 Sep 15:30:31 15:35:34 56° 77° (ENE) 15:40:36 436.500 FM
TMSAT-1 02 Sep 15:45:55 15:49:29 19° 77° (ENE) 15:53:03 436.925 FM
AO-27 02 Sep 15:50:50 15:56:03 87° 257° (WSW) 16:01:14 436.795 MHz FM
Sapphire 02 Sep 15:53:16 15:58:17 40° 109° (ESE) 16:03:17 437.095 MHz 1200 baud AX-25 AFSK
JAS-1B 02 Sep 16:12:52 16:22:36 72° 256° (WSW) 16:32:17 435.800 - 435.900 CW/SSB
PCSat 02 Sep 16:22:01 16:27:25 84° 289° (WNW) 16:32:48 145.825 MHz
Oscar 19 02 Sep 16:24:57 16:26:55 12° 257° (WSW) 16:28:53 437.125 CW, 437.150 USB
AO-Echo 02 Sep 16:28:34 16:32:51 26° 257° (WSW) 16:37:02 ?
Gurwin Techsat 1B 02 Sep 16:34:08 16:39:26 75° 258° (WSW) 16:44:43 435.225 FM
UOSAT-12 02 Sep 16:37:49 16:42:25 84° 68° (ENE) 16:46:56 437.025 FM, 437.400 FM
AO-7 02 Sep 16:37:54 16:43:09 18° 73° (ENE) 16:48:22 29.400 - 29.500 MHz
ITAMSAT 1 02 Sep 17:03:30 17:05:30 12° 257° (WSW) 17:07:31 435.822 SSB
Uosat F 02 Sep 17:21:19 17:25:44 31° 77° (ENE) 17:30:07 435.120 FM
TMSAT-1 02 Sep 17:24:40 17:29:08 28° 257° (WSW) 17:33:35 436.925 FM
OPAL 02 Sep 17:36:12 17:40:54 36° 104° (ESE) 17:45:33 ?
Sapphire 02 Sep 17:39:02 17:41:27 13° 290° (WNW) 17:43:51 437.095 MHz 1200 baud AX-25 AFSK
PANSAT 02 Sep 17:52:58 17:55:15 15° 28° (NNE) 17:57:32 not established
RS-15 02 Sep 18:26:06 18:36:46 44° 70° (ENE) 18:47:49 29.354 - 29.394 USB, Beacon 29.352 USB
AO-7 02 Sep 18:27:23 18:35:32 58° 254° (WSW) 18:43:40 29.400 - 29.500 MHz
JAS-2 02 Sep 18:54:08 19:00:16 34° 79° (E) 19:05:45 435.800 - 435.900 CW/SSB, 435.910 FM
Uosat F 02 Sep 19:01:29 19:04:14 15° 257° (WSW) 19:06:58 435.120 FM
OPAL 02 Sep 19:16:56 19:19:29 14° 285° (WNW) 19:22:01 ?
ISS 02 Sep 19:25:24 19:27:53 20° 54° (NE) 19:30:23 145.800 FM
STRAND 1 02 Sep 19:26:06 19:29:07 16° 103° (ESE) 19:32:09 ?
PANSAT 02 Sep 19:31:35 19:35:25 80° 210° (SSW) 19:39:16 not established
Hamsat 02 Sep 19:49:38 19:53:45 48° 259° (WSW) 19:57:53 145.90 MHz
SO-67 02 Sep 20:18:14 20:21:17 29° 79° (E) 20:24:20 435.3500 MHz FM
RS-15 02 Sep 20:38:43 20:48:46 35° 248° (WSW) 20:59:17 29.354 - 29.394 USB, Beacon 29.352 USB
JAS-2 02 Sep 20:39:36 20:44:55 23° 254° (WSW) 20:49:50 435.800 - 435.900 CW/SSB, 435.910 FM
Saudisat 1A 02 Sep 20:40:08 20:42:04 13° 113° (ESE) 20:44:00 436.775 MHz
ISS 02 Sep 21:02:51 21:04:25 13° 234° (SW) 21:06:00 145.800 FM
STRAND 1 02 Sep 21:03:35 21:08:01 31° 283° (WNW) 21:12:30 ?
PANSAT 02 Sep 21:13:59 21:15:38 12° 208° (SSW) 21:17:17 not established
KITSAT 1 02 Sep 21:59:47 22:06:41 31° 110° (ESE) 22:13:33 435.175 FM
Saudisat 1A 02 Sep 22:17:39 22:21:24 28° 292° (WNW) 22:25:09 436.775 MHz
HO-68 02 Sep 22:37:54 22:45:05 83° 76° (ENE) 22:52:13 435.675 MHz FM
UKube-1 02 Sep 23:25:34 23:29:43 43° 258° (WSW) 23:33:50 145.840 MHz, 145.915 MHz
Oscar 11 02 Sep 23:28:17 23:32:35 72° 258° (WSW) 23:36:54 145.825 FM, Beacon 2401.500 USB
KITSAT 1 02 Sep 23:54:41 00:01:44 34° 290° (WNW) 00:08:49 435.175 FM
FUNcube-1 03 Sep 00:02:41 00:06:50 81° 258° (WSW) 00:10:59 145.950 - 145.970 MHz USB
MaSat-1 03 Sep 00:18:04 00:21:05 30° 71° (ENE) 00:23:44 437.345 MHz
Oscar 10/S400 03 Sep 00:29:16 20:34:00 42° 351° (N) 21:19:37 145.825 - 145.975 CW/USB, Beacon 145.810 USB
Oscar 16 03 Sep 02:14:35 02:18:00 18° 103° (ESE) 02:21:25 437.025 USB, Beacon 2401.1428
AO-27 03 Sep 02:48:58 02:51:59 16° 103° (ESE) 02:55:01 436.795 MHz FM
SO-50 03 Sep 03:06:55 03:11:05 42° 292° (WNW) 03:15:15 436.795 FM
